Location: Briis
(48.6240°N, 2.1211°E)
Time: 16:04:45
(UTC+00:00)

Cosmos 1697 Rocket - Pass Details

Date: 25 September 2020
Orbit: 832 x 843 km, 71.0° (Epoch: 22 October)

Event Time Altitude Azimuth Distance (km) Brightness Sun altitude
Exits shadow 02:40:57 41° 332° (NNW) 1,199 3.5 -29.0°
Drops below altitude 10° 02:45:25 10° 19° (NNE) 2,455 5.8 -28.4°
Sets 02:48:00 0° 26° (NNE) 3,394 6.7 -28.1°
